Regional Weather Roundup
Issued by NWS

Home | Current Version | Previous Version | Text Only | Print | Product List | Glossary On
Versions: 1 2 3 4 5 6 7 8 9 10 11 12 13 14 15 16 17 18 19 20 21 22 23 24 25 26 27 28 29 30 31 32 33 34 35 36 37 38 39 40 41 42 43 44 45 46
000
ASPQ40 PGUM 201912
RWRPQ
WEATHER ROUNDUP FOR THE MARIANAS AND MICRONESIA
NATIONAL WEATHER SERVICE TIYAN GU
500 AM CHST SUN DEC 21 2014

GUZ001>004-202000-
MARIANA ISLANDS-

CITY           SKY/WX    TMP DP  RH WIND       PRES   REMARKS
GUAM AIRPORT   PTCLDY    81  75  83 E12       29.88R
ANDERSEN AFB   PTCLDY    79  75  89 NE16      29.88R
ROTA AIRPORT   NOT AVBL
TINIAN AP      NOT AVBL
SAIPAN AP      MOCLDY    81  75  83 E18G28    29.89R

$$

PMZ161-202000-
REPUBLIC OF PALAU-

CITY           SKY/WX    TMP DP  RH WIND       PRES   REMARKS
KOROR AP       MOCLDY    81  77  89 E8        29.75F
KOROR WSO      MOCLDY    82  75  78 SE7       29.73F

$$

PMZ171>174-202000-
FEDERATED STATES OF MICRONESIA-

CITY           SKY/WX    TMP DP  RH WIND       PRES   REMARKS
YAP AIRPORT    CLOUDY    79  77  94 E7        29.75S
CHUUK AP       LGT RAIN  81  77  89 N12       29.77R
POHNPEI AP     NOT AVBL
POHNPEI WSO    CLOUDY    81  77  89 E14       29.78S
KOSRAE AP      NOT AVBL

$$

PMZ181-202000-
REPUBLIC OF THE MARSHALL ISLANDS-

CITY           SKY/WX    TMP DP  RH WIND       PRES   REMARKS
KWAJALEIN AP   PTCLDY    81  73  78 NE20G28   29.79R
MAJURO AP      NOT AVBL
MAJURO WSO     PTCLDY    82  77  83 NE14      29.75R HX  91

$$




USA.gov is the U.S. government's official web portal to all federal, state and local government web resources and services.